Lid_Strength_Index
9 12 14 12 12 13 12 14 15 14 11 12 12 12 11 11 11 11 11 10 11 10 10 9 9 10 8 5 4 4 3 3 2 3 4 4 3 2 2 2 2 2 2 2
11 14 12 11 10 12 12 14 16 13 11 12 14 13 12 11 11 11 10 10 10 10 9 9 10 10 9 10 10 9 5 4 3 2 3 3 3 3 3 3 3 2 2 2
13 13 11 12 12 13 14 15 15 14 13 14 16 16 15 14 13 12 11 11 12 11 11 9 9 10 10 10 9 8 8 8 6 2 3 4 4 4 4 4 3 3 3 2
12 11 11 13 13 13 14 12 12 13 15 18 16 21 17 17 15 14 13 13 13 12 12 11 11 11 10 9 9 8 8 8 7 7 3 4 3 4 4 4 4 3 2 2
15 13 12 13 14 12 14 11 12 14 17 18 19 20 18 17 16 15 16 14 13 14 12 12 11 10 11 10 10 9 8 8 8 7 7 5 4 4 4 4 4 3 3 3
12 10 11 12 12 11 12 13 13 14 17 22 19 19 20 18 16 16 14 13 13 12 12 11 10 10 10 10 10 10 10 10 9 9 8 8 7 7 5 4 4 3 4 6
13 12 10 10 12 11 12 15 19 20 20 21 20 20 19 16 17 16 15 14 14 13 12 11 10 10 10 11 11 11 11 11 11 10 10 10 8 7 6 5 5 5 6 7
15 17 12 10 12 13 14 14 18 22 25 23 19 21 19 16 14 13 13 12 13 13 12 12 11 11 11 11 12 12 12 12 11 11 11 10 10 9 8 8 7 6 7 8
15 15 10 10 10 10 13 16 14 18 22 22 21 19 16 16 15 15 14 13 13 13 12 11 11 11 11 12 12 12 12 12 12 12 12 11 11 10 10 9 9 9 9 8
12 16 12 11 10 10 12 11 16 17 24 25 23 21 20 17 15 15 14 13 12 12 12 11 11 11 12 12 12 12 12 12 12 12 12 12 12 11 11 10 10 10 10 10
10 13 13 11 13 13 13 13 13 14 17 21 24 21 17 16 15 14 13 12 12 11 11 10 11 11 11 12 12 12 12 12 12 12 12 12 12 12 12 11 11 11 10 10
10 12 16 14 11 11 11 13 13 17 19 18 18 20 15 15 14 13 12 12 11 11 10 10 10 10 11 11 11 12 12 12 11 11 11 11 11 11 11 11 11 10 10 10
10 14 18 17 13 11 13 12 12 13 14 17 19 20 13 13 13 12 11 11 10 11 11 10 10 10 10 10 10 10 11 11 11 11 11 11 11 11 11 11 11 10 10 10
8 12 15 18 15 13 14 13 11 12 16 16 16 17 14 12 11 11 10 10 10 10 9 9 9 10 10 10 9 9 9 10 11 11 11 11 11 11 11 11 11 11 10 11
9 14 14 13 13 13 13 14 12 13 13 15 14 14 13 12 11 11 11 10 10 9 9 9 9 10 10 10 10 10 9 9 10 10 10 11 11 11 11 11 11 11 11 11
10 19 15 18 14 13 14 13 12 12 12 12 13 14 12 11 11 11 10 10 10 10 9 9 9 9 9 9 9 9 9 9 10 10 10 11 11 11 11 11 12 12 12 12
12 17 15 20 14 15 17 13 13 12 11 11 14 11 9 9 9 10 10 9 10 10 9 9 9 9 9 10 10 10 9 9 10 10 10 11 11 11 11 11 12 12 12 12
12 14 14 19 21 24 14 11 11 12 11 10 10 10 9 8 8 8 8 9 9 9 9 9 9 10 10 10 9 10 10 10 10 10 11 11 11 11 11 11 11 12 12 12
9 12 18 20 20 17 13 12 12 12 12 9 10 9 9 9 10 9 8 8 8 7 7 8 9 9 9 10 10 10 11 11 11 11 11 11 11 11 11 11 11 12 12 12
10 9 13 18 19 21 14 12 10 9 15 10 9 9 9 10 12 9 7 7 7 8 8 9 9 10 10 11 11 10 11 11 11 11 11 11 11 11 11 11 12 12 12 12
13 13 15 15 16 16 12 11 9 15 14 11 10 9 10 10 8 9 9 9 9 9 9 9 10 10 10 11 11 11 11 11 11 11 11 12 11 11 11 11 12 12 12 12
16 16 16 14 16 18 10 10 12 9 9 10 11 10 10 9 9 9 9 10 9 9 9 10 10 10 11 11 11 11 11 12 12 12 13 14 14 12 12 13 14 13 12 12
16 12 15 14 13 9 9 10 8 9 9 10 10 9 9 10 10 10 11 11 10 10 10 10 10 11 12 12 12 12 12 13 15 16 16 16 15 14 14 14 14 14 13 12
12 11 13 12 10 10 9 8 8 8 8 8 9 10 10 11 10 10 10 10 10 11 11 11 11 13 12 15 15 16 15 16 17 17 18 18 17 17 16 15 15 15 14 14
12 11 13 13 10 10 8 8 7 7 7 8 8 9 9 9 10 11 10 10 11 11 13 14 15 15 16 18 19 20 19 19 18 18 18 18 18 18 18 17 16 15 16 14
11 11 12 12 9 8 9 7 8 8 8 8 9 9 9 10 10 11 11 11 11 14 16 16 17 18 19 20 21 23 24 21 19 19 19 19 18 18 17 16 16 11 11 11